Location: Newark
(43.0000°N, 1.6781°W)
Time: 05:35:03
(UTC+00:00)

XW-2C - Pass Details

Date: 01 December 2022
Orbit: 491 x 506 km, 97.5° (Epoch: 28 January)

Event Time Altitude Azimuth Distance (km) Brightness Sun altitude
Rises 17:41:52 0° 178° (S) 2,602 ? -12.3°
Reaches altitude 10° 17:43:59 10° 183° (S) 1,718 ? -12.7°
Maximum altitude 17:47:36 50° 260° (W) 648 ? -13.3°
Drops below altitude 10° 17:51:12 10° 337° (NNW) 1,719 ? -13.9°
Sets 17:53:20 0° 343° (NNW) 2,604 ? -14.3°
